DECAYED

STARLINK-3183, 51134 (Decayed)

Orbit data source: Space-Track

STARLINK-3183, 51134 was a payload satellite owned by SpaceX/Seattle (US) in LEO that was launched on Wed, 19 Jan 2022 UTC via an FALCON 9 launch vehicle from the Air Force Eastern Test Range (AFETR). Payload-class satellites include a variety of spacecraft equipped with specific instruments for various scientific and technological missions. These include communications satellites like Starlink; space stations such as the ISS; scientific satellites like the Hubble; Earth observation satellites from companies like Planet Labs, Umbra, and HawkEye 360; GPS; miniature CubeSats for education and research; and military/defense satellites.

Not visible in the next 10 days
Identifier
51134, 2022-005AG
Orbit
Decayed
Country
Flag of USUS
Related business
Manufacturer
SpaceX/Seattle
Mission
Decayed Commercial Communications
Bus & Motor
STARLINK, Unknown motor
Mass
297 kg wet, ~275 kg dry
Launch date (UTC)
2022-01-19 (4 years ago)
Launch vehicle
FALCON 9
Launch site
Air Force Eastern Test Range (AFETR)
Object type
Payload
Rocket body
Debris
Shape & HBR
Box + 1 Pan, 10.1 m
Radar Cross Section
13.562 m², Large (>1 m²)

Expand to show TLE details & history
Last TLE update: 5 months ago

TLE from 5 months ago
0 STARLINK-3183
1 51134U 22005AG  25320.26910508  .09743752  12304-4  10607-2 0  9993
2 51134  53.2019  61.5493 0004580 311.9032  48.1624 16.36552487211994
Epoch: 2025-11-16T06:27Z
TLE epoch observation values (Epoch: 2025-11-16T06:27:30.678Z)
Latitude
-0.00006°
Longitude
-90.91489°
Altitude
173.934 km
Speed
7.804 km/s
True Right ascension
04h 06m 11s
True Declination
0° 00' 00"
Sunlit
Object was in full shadow at epoch
Visualization orbit readout
Latitude
Unknown
Longitude
Unknown
Altitude
Unknown
Speed
Unknown
Apparent Right ascension
Unknown
Apparent Declination
Unknown
Sunlit
N/A
Visualization observer readout
Local Sidereal Time
11:28:12
Azimuth
Unknown
Elevation
Unknown
Doppler factor
Unknown
Orbital elements
Apogee altitude
178.252 km
Perigee altitude
172.249 km
Semi-major axis
6,553.387 km
Eccentricity
0.00046
Inclination
53.2019°
RAAN
61.5493°
Arg. of periapsis
311.9032°
True anomaly
48.20152°
Mean anomaly
48.1624°
Eccentric anomaly
48.18196°
Mean motion
4.09114 °/min
Orbital period
88 mins
BSTAR
0.0010607
Loading maneuver chart data...
Computing Atmospheric mass density...
Loading historical data...
Loading historical data...
Loading historical data...
Loading historical data...
Loading historical data...
Loading historical data...
Loading historical data...

Documentation

Showing up to 5 results
|